Wind_Speed
23 24 25 28 29 33 36 37 39 40 42 41 38 41 38 45 49 51 57 63 66 70 71 71 71 71 68 74 78 78 81 83 89 86 90 89 91 93 92 92 84 75 70
26 27 28 32 35 37 38 40 41 42 41 42 42 45 48 48 51 55 58 63 68 69 68 69 69 68 68 74 79 80 87 85 87 88 87 89 91 91 90 88 75 66 62
30 31 34 37 39 41 41 43 44 43 44 44 44 47 50 52 54 54 56 61 63 66 69 70 70 70 72 76 81 82 84 86 88 89 89 90 91 88 84 75 69 64 62
35 37 40 41 41 41 43 44 45 44 45 45 46 48 51 52 55 57 60 63 64 65 67 68 69 71 75 78 80 82 83 85 88 91 92 91 91 82 72 71 68 66 65
38 40 41 42 42 43 43 43 44 43 44 45 47 51 53 55 57 59 62 64 64 66 66 66 70 72 74 76 79 80 83 86 88 90 89 86 80 76 72 70 70 65 61
37 37 38 39 40 40 40 41 42 43 45 47 51 54 57 59 61 61 64 63 65 63 63 65 68 71 74 76 78 80 83 87 90 89 84 78 75 74 73 69 66 61 54
33 34 36 37 37 38 39 41 43 46 49 51 54 56 59 60 62 63 64 62 59 60 63 67 71 74 76 79 82 85 88 90 91 88 81 75 72 67 67 63 59 54 49
35 36 35 36 38 39 41 44 46 49 52 55 58 60 61 62 63 63 60 59 60 64 68 72 76 78 80 83 87 88 90 91 86 80 76 71 66 60 59 57 52 47 42
35 35 36 37 39 41 44 47 50 52 56 59 60 61 62 64 64 61 60 62 65 69 73 77 81 83 84 85 89 91 90 87 78 74 71 67 65 56 52 49 44 42 36
34 35 37 39 42 44 47 50 53 56 59 61 62 62 64 66 64 62 65 68 71 73 77 82 84 86 88 89 91 91 88 81 73 67 65 62 57 50 45 40 39 36 35
35 38 40 43 46 49 51 54 57 60 61 62 63 63 65 64 64 65 68 73 76 79 83 87 88 89 91 91 90 87 80 74 68 61 53 50 46 44 37 35 34 33 33
39 42 44 47 50 53 56 59 61 62 63 63 63 65 64 63 65 68 73 77 80 84 88 90 91 91 91 90 85 78 74 69 59 50 44 41 37 38 38 35 33 30 32
43 45 48 51 53 57 60 61 62 63 63 63 66 65 64 65 68 71 75 79 84 88 91 91 91 91 90 86 79 72 68 59 48 44 41 36 36 36 36 32 35 33 30
46 49 51 55 59 61 61 62 64 63 63 65 65 65 66 68 71 75 79 83 87 90 91 91 91 91 87 81 72 67 61 47 42 40 36 33 43 38 36 32 34 32 30
50 53 57 59 60 62 63 65 63 65 67 66 67 68 70 73 77 81 84 88 90 91 92 92 91 87 81 74 67 61 52 44 40 38 34 32 35 35 33 32 32 30 27
54 57 59 61 62 63 65 64 65 66 67 69 71 73 76 78 82 85 88 89 90 90 88 87 84 79 74 70 62 53 46 43 40 37 35 33 33 32 32 30 28 27 25
56 57 59 61 63 64 64 67 69 69 70 72 74 77 80 82 85 87 88 89 87 84 84 82 78 73 71 66 56 47 43 42 40 35 33 33 33 33 32 30 27 25 22
52 55 59 62 63 65 68 72 72 73 75 76 77 80 82 84 87 87 87 86 80 80 80 76 73 71 70 62 52 44 41 39 39 35 31 31 31 30 29 25 25 23 22
56 61 62 62 62 67 72 74 75 77 78 79 81 82 84 87 87 87 83 79 78 78 75 70 70 70 69 59 48 43 40 38 36 32 31 29 28 26 24 23 23 24 21
60 66 65 66 68 70 72 75 78 79 80 81 82 85 88 88 86 83 77 75 77 75 70 67 68 70 65 54 45 42 39 37 33 30 28 27 25 23 23 24 24 24 21
69 68 68 70 70 71 74 77 79 80 81 84 86 88 88 86 82 75 74 76 74 71 66 65 69 68 58 49 43 40 38 35 31 29 26 26 23 21 23 25 25 23 21
70 70 71 72 73 73 75 77 79 82 85 87 88 88 85 79 74 75 76 74 72 69 64 65 68 62 52 46 41 39 36 32 29 25 24 25 22 21 23 26 26 23 21
71 73 75 74 73 73 76 79 83 86 88 88 86 84 78 75 76 75 74 72 70 65 65 66 64 55 48 43 39 36 33 30 25 26 29 29 22 21 24 26 27 24 22
77 78 78 76 75 77 80 84 86 89 87 85 82 79 78 78 76 74 72 70 66 64 64 64 59 49 44 40 38 34 31 29 28 34 34 30 24 25 25 26 25 24 24
79 79 78 78 79 83 85 88 89 86 84 82 81 80 79 78 76 73 71 67 64 64 63 59 51 44 40 38 36 34 29 26 32 36 33 27 27 27 24 25 26 25 23
79 80 81 83 85 87 89 88 86 84 83 83 82 81 80 77 74 70 67 65 63 62 58 51 44 39 37 36 35 31 27 24 32 33 30 27 30 27 26 24 24 25 24
Wind_Direction
264 269 279 284 292 292 295 300 301 299 299 299 295 293 284 287 287 284 281 281 284 291 293 295 298 302 299 293 298 301 300 297 304 305 306 307 307 307 309 311 313 312 310
270 274 281 285 288 292 294 295 295 296 296 297 295 293 292 291 289 287 286 287 289 295 297 298 301 300 298 300 300 297 302 303 305 305 306 306 306 308 310 311 311 309 310
270 276 278 283 287 288 291 293 293 294 294 293 292 288 292 292 293 294 293 293 296 297 299 301 302 303 301 300 300 302 303 304 305 306 306 307 308 310 309 308 309 309 310
273 274 278 281 282 285 286 288 291 292 292 294 294 294 296 296 297 298 298 299 299 299 301 302 303 303 302 302 302 304 304 305 305 306 307 308 308 309 307 306 306 307 309
270 270 273 276 279 281 284 286 288 290 293 295 296 297 298 300 301 301 300 299 300 301 304 304 303 304 305 304 304 306 305 305 306 307 308 309 308 307 306 304 305 306 307
267 271 274 276 277 280 282 285 290 294 296 297 299 300 301 302 300 299 299 301 302 304 305 307 309 309 308 308 307 306 305 306 306 306 307 307 306 304 304 303 303 304 304
274 276 276 278 281 284 287 292 295 297 298 299 300 300 299 299 300 300 300 301 302 306 308 311 315 313 312 309 307 307 307 307 306 307 306 305 301 301 300 300 300 301 300
278 281 282 284 286 290 294 296 297 297 298 299 300 300 301 301 301 300 298 299 303 309 312 315 317 316 313 310 309 309 308 307 309 307 304 302 300 299 296 297 298 297 296
278 279 282 286 291 292 293 294 295 297 300 302 302 302 301 300 301 298 298 302 307 311 314 316 316 315 314 310 308 309 309 309 307 303 302 301 300 296 293 293 295 295 290
276 280 284 287 288 290 293 296 298 300 302 303 303 302 301 301 302 299 301 306 309 311 313 315 315 314 313 312 311 310 310 308 305 302 300 298 296 295 292 290 290 289 287
279 284 286 288 291 295 298 300 302 302 303 302 301 302 303 303 301 301 303 306 308 311 313 315 315 314 313 313 312 311 308 305 303 298 297 296 294 291 290 286 285 287 286
281 283 287 292 296 299 301 303 303 302 302 303 303 304 304 302 301 302 304 307 310 312 314 314 314 314 313 313 313 310 308 306 302 295 292 290 293 292 290 283 279 281 278
285 289 292 295 298 300 300 301 302 303 304 304 305 304 303 302 303 305 308 310 312 314 314 314 314 314 315 315 314 312 310 307 299 295 295 290 283 284 286 281 281 283 276
290 293 296 298 299 299 301 302 303 304 304 305 304 304 303 304 307 309 310 312 313 313 313 313 314 316 316 316 316 314 312 305 300 297 291 278 274 285 282 276 275 275 273
293 296 297 298 299 300 302 304 304 305 306 305 305 305 306 308 309 310 312 312 312 313 313 315 317 317 318 318 316 315 311 305 300 296 290 282 275 278 280 278 273 267 267
294 296 297 298 300 302 303 303 305 305 304 305 305 306 307 308 310 311 312 312 313 314 316 317 317 318 318 318 314 311 306 303 300 296 291 287 284 283 276 273 266 260 259
295 297 299 301 302 303 303 304 305 305 305 305 306 307 307 309 310 311 312 313 314 315 316 316 317 317 319 318 312 308 304 300 297 292 285 281 279 279 275 268 255 251 251
294 300 302 302 302 303 304 305 305 305 304 304 305 306 308 309 311 312 312 314 315 316 316 315 316 318 320 316 310 304 301 296 292 287 280 277 276 274 271 259 246 241 244
291 301 302 300 301 303 304 304 304 303 303 303 305 306 308 310 311 311 313 314 314 315 315 314 316 319 319 314 307 302 299 296 289 278 273 274 273 268 260 246 238 237 242
287 298 300 299 300 301 302 302 301 301 301 303 305 308 310 311 311 313 313 313 315 315 314 313 316 319 316 311 305 302 299 296 285 272 265 266 264 259 246 238 231 234 239
293 297 296 297 299 299 300 300 300 300 302 305 307 309 310 310 313 313 313 314 314 314 313 314 317 318 313 308 304 302 300 294 279 263 257 258 259 252 240 232 228 233 237
298 295 295 297 297 297 298 298 299 301 304 306 308 309 311 313 312 312 313 313 314 314 312 315 318 315 310 306 303 302 299 290 275 250 244 250 249 242 234 228 227 233 234
291 292 295 296 297 296 295 297 300 303 305 307 308 310 312 312 312 313 312 313 313 312 313 317 317 312 308 304 303 302 297 287 258 233 239 245 247 230 228 229 229 232 233
293 296 296 296 295 294 296 299 302 304 305 307 309 310 311 312 312 312 312 313 312 312 314 316 314 309 305 303 302 300 294 283 250 230 238 242 233 226 229 227 229 231 233
293 294 294 294 295 297 299 301 303 304 306 306 308 309 310 310 311 311 312 312 311 313 314 313 309 306 303 302 301 300 293 280 240 232 237 232 220 221 226 228 229 229 230
292 293 294 296 298 299 300 301 303 304 305 306 307 308 308 309 310 310 310 310 311 311 310 309 307 305 303 303 302 298 291 277 227 229 238 232 215 216 222 226 226 226 228
Height
5734 5734 5733 5731 5730 5728 5726 5723 5721 5720 5717 5714 5711 5708 5705 5702 5698 5694 5688 5682 5676 5669 5662 5654 5647 5637 5630 5621 5613 5604 5594 5583 5574 5570 5555 5544 5531 5518 5511 5502 5493 5482 5472
5728 5727 5726 5724 5723 5721 5719 5717 5715 5712 5708 5705 5702 5699 5695 5691 5685 5680 5675 5669 5663 5655 5648 5639 5631 5623 5616 5606 5597 5588 5577 5566 5554 5549 5542 5526 5514 5501 5489 5480 5473 5465 5457
5721 5721 5720 5718 5716 5714 5712 5709 5706 5702 5699 5696 5692 5689 5684 5678 5673 5668 5662 5655 5649 5641 5632 5623 5615 5607 5599 5590 5579 5569 5559 5548 5536 5525 5517 5508 5495 5483 5471 5461 5454 5449 5442
5715 5713 5712 5710 5708 5706 5703 5700 5696 5693 5689 5685 5682 5677 5672 5666 5660 5654 5647 5640 5634 5626 5618 5609 5601 5592 5583 5572 5562 5552 5541 5530 5518 5505 5495 5485 5474 5467 5454 5443 5438 5432 5425
5706 5704 5703 5702 5699 5697 5694 5691 5688 5684 5680 5676 5670 5665 5659 5653 5647 5640 5633 5626 5618 5611 5603 5594 5586 5578 5568 5557 5545 5536 5522 5509 5498 5484 5472 5462 5453 5443 5436 5429 5421 5416 5412
5697 5696 5695 5693 5691 5688 5685 5682 5677 5674 5669 5664 5658 5652 5645 5639 5632 5626 5619 5612 5605 5597 5590 5580 5570 5560 5549 5539 5530 5520 5509 5494 5481 5469 5457 5445 5436 5425 5416 5411 5405 5401 5398
5689 5688 5686 5683 5681 5678 5675 5671 5667 5662 5657 5652 5646 5639 5632 5626 5619 5612 5605 5599 5591 5583 5575 5565 5554 5542 5530 5518 5507 5497 5487 5477 5463 5449 5440 5434 5421 5412 5403 5398 5392 5388 5385
5679 5678 5676 5674 5671 5668 5665 5661 5656 5651 5645 5639 5633 5626 5618 5612 5605 5597 5591 5584 5577 5568 5558 5547 5536 5526 5513 5498 5485 5476 5466 5452 5436 5426 5418 5410 5404 5398 5390 5383 5380 5376 5373
5671 5669 5667 5665 5661 5658 5654 5650 5645 5639 5633 5626 5619 5612 5604 5596 5592 5583 5574 5568 5560 5550 5540 5529 5516 5505 5494 5481 5465 5452 5441 5433 5421 5406 5395 5390 5385 5382 5376 5370 5367 5364 5364
5662 5660 5657 5654 5651 5647 5642 5637 5631 5625 5619 5612 5604 5597 5589 5580 5575 5567 5558 5549 5542 5534 5525 5512 5499 5485 5472 5460 5443 5431 5417 5409 5400 5390 5379 5373 5369 5365 5363 5359 5356 5354 5352
5652 5649 5647 5643 5639 5634 5630 5625 5619 5612 5605 5598 5590 5581 5573 5564 5556 5550 5542 5531 5523 5514 5504 5494 5481 5467 5452 5440 5424 5410 5398 5388 5382 5372 5365 5358 5355 5353 5351 5349 5346 5344 5342
5641 5638 5635 5631 5627 5623 5617 5611 5604 5597 5590 5582 5574 5565 5556 5548 5541 5535 5524 5514 5503 5494 5483 5471 5459 5445 5431 5418 5403 5390 5377 5367 5360 5355 5351 5347 5342 5340 5339 5337 5337 5336 5335
5630 5627 5623 5618 5613 5607 5601 5595 5588 5581 5573 5566 5558 5550 5541 5534 5525 5517 5507 5496 5485 5474 5462 5449 5435 5423 5410 5396 5382 5369 5357 5348 5342 5338 5335 5333 5332 5330 5328 5326 5325 5325 5325
5618 5614 5609 5604 5598 5592 5586 5579 5572 5564 5557 5550 5542 5534 5525 5516 5507 5497 5488 5477 5467 5455 5443 5430 5415 5400 5387 5374 5362 5351 5341 5333 5329 5325 5323 5321 5319 5318 5317 5317 5316 5316 5316
5605 5600 5595 5589 5583 5577 5571 5564 5557 5549 5542 5534 5526 5517 5508 5498 5488 5477 5467 5457 5446 5434 5423 5407 5394 5380 5367 5355 5344 5334 5327 5322 5318 5314 5312 5311 5310 5308 5308 5307 5306 5306 5308
5590 5585 5580 5574 5568 5562 5556 5548 5538 5533 5525 5516 5508 5499 5490 5480 5470 5459 5448 5436 5423 5410 5399 5387 5375 5363 5350 5340 5330 5322 5315 5310 5307 5303 5300 5300 5299 5298 5297 5297 5297 5299 5300
5575 5570 5565 5559 5552 5545 5538 5531 5526 5517 5506 5499 5490 5482 5471 5462 5451 5440 5428 5415 5402 5391 5379 5367 5356 5346 5336 5325 5316 5308 5303 5298 5295 5293 5291 5290 5289 5288 5287 5287 5288 5291 5293
5559 5554 5548 5541 5535 5529 5521 5513 5505 5497 5490 5483 5476 5465 5453 5442 5432 5420 5408 5396 5385 5372 5361 5349 5340 5330 5320 5311 5303 5297 5292 5288 5283 5281 5280 5279 5279 5278 5278 5278 5280 5283 5286
5542 5537 5530 5524 5516 5510 5503 5496 5487 5479 5470 5461 5453 5444 5436 5425 5413 5402 5391 5379 5368 5356 5344 5333 5323 5314 5304 5295 5289 5284 5280 5275 5271 5270 5269 5269 5269 5269 5270 5271 5274 5277 5279
5524 5519 5512 5506 5498 5490 5483 5475 5467 5459 5451 5442 5433 5424 5413 5404 5393 5382 5371 5361 5350 5340 5329 5319 5309 5298 5289 5281 5275 5270 5266 5262 5259 5258 5259 5259 5260 5261 5262 5265 5268 5271 5274
5509 5501 5494 5487 5480 5472 5463 5456 5448 5440 5431 5422 5412 5404 5393 5383 5373 5362 5353 5343 5332 5323 5314 5304 5294 5283 5274 5267 5262 5257 5253 5249 5247 5247 5249 5251 5252 5254 5256 5258 5262 5265 5268
5490 5484 5476 5469 5461 5451 5444 5436 5428 5420 5411 5402 5392 5381 5373 5363 5353 5344 5335 5324 5314 5305 5296 5289 5279 5269 5260 5254 5249 5245 5241 5238 5236 5237 5240 5242 5245 5247 5249 5252 5256 5259 5262
5472 5465 5457 5449 5440 5432 5425 5417 5409 5400 5390 5381 5371 5362 5353 5344 5335 5326 5316 5307 5297 5288 5280 5272 5263 5254 5247 5241 5237 5233 5229 5227 5226 5229 5231 5235 5237 5240 5243 5246 5250 5253 5257
5453 5445 5437 5429 5421 5414 5406 5397 5389 5380 5370 5360 5351 5343 5334 5326 5317 5308 5298 5289 5280 5272 5264 5256 5247 5240 5234 5229 5225 5221 5218 5216 5216 5219 5222 5227 5230 5233 5237 5240 5244 5247 5251
5433 5425 5417 5410 5403 5394 5386 5377 5367 5358 5349 5341 5332 5324 5315 5307 5298 5289 5280 5272 5264 5256 5248 5240 5233 5227 5222 5217 5213 5209 5207 5205 5205 5209 5214 5219 5223 5226 5230 5234 5237 5241 5245
5412 5405 5397 5389 5381 5373 5364 5355 5346 5337 5329 5321 5313 5304 5296 5288 5279 5271 5263 5255 5248 5240 5232 5225 5220 5215 5210 5205 5201 5198 5195 5194 5196 5201 5206 5210 5215 5220 5224 5228 5231 5235 5238